Location: Newark
(9.4667°S, 159.8167°E)
Time: 07:04:50
(UTC+00:00)

Courier 1B Rocket - Pass Details

Date: 20 November 2019
Orbit: 920 x 1202 km, 28.2° (Epoch: 06 December)

Event Time Altitude Azimuth Distance (km) Brightness Sun altitude
Rises 10:26:01 0° 329° (NNW) 4,082 - -41.0°
Reaches altitude 10° 10:29:45 10° 345° (NNW) 3,120 - -41.7°
Maximum altitude 10:35:13 21° 30° (NNE) 2,403 - -42.8°
Drops below altitude 10° 10:40:36 10° 75° (ENE) 3,062 - -43.8°
Sets 10:44:11 0° 90° (E) 3,985 - -44.5°
